Year,Month,Day,Hour,Minute,Value (Times are PST for temperature in C)
2007,01,28,00,00,-0.10
2007,01,28,00,01,-0.10
2007,01,28,00,02,-0.10
2007,01,28,00,03,0.00
2007,01,28,00,04,0.10
2007,01,28,00,05,0.10
2007,01,28,00,06,0.10
2007,01,28,00,07,0.10
2007,01,28,00,08,0.10
2007,01,28,00,09,0.20
2007,01,28,00,10,0.20
2007,01,28,00,11,0.20
2007,01,28,00,12,0.20
2007,01,28,00,13,0.20
2007,01,28,00,14,0.30
2007,01,28,00,15,0.30
2007,01,28,00,16,0.30
2007,01,28,00,17,0.30
2007,01,28,00,18,0.30
2007,01,28,00,19,0.20
2007,01,28,00,20,0.20
2007,01,28,00,21,0.20
2007,01,28,00,22,0.20
2007,01,28,00,23,0.20
2007,01,28,00,24,0.20
2007,01,28,00,25,0.10
2007,01,28,00,26,0.10
2007,01,28,00,27,0.10
2007,01,28,00,28,0.10
2007,01,28,00,29,0.10
2007,01,28,00,30,0.10
2007,01,28,00,31,0.10
2007,01,28,00,32,0.10
2007,01,28,00,33,0.10
2007,01,28,00,34,0.10
2007,01,28,00,35,0.10
2007,01,28,00,36,0.00
2007,01,28,00,37,-0.10
2007,01,28,00,38,0.00
2007,01,28,00,39,0.10
2007,01,28,00,40,0.10
2007,01,28,00,41,0.10
2007,01,28,00,42,0.10
2007,01,28,00,43,0.10
2007,01,28,00,44,0.00
2007,01,28,00,45,-0.10
2007,01,28,00,46,-0.10
2007,01,28,00,47,-0.10
2007,01,28,00,48,-0.10
2007,01,28,00,49,-0.10
2007,01,28,00,50,-0.10
2007,01,28,00,51,-0.10
2007,01,28,00,52,-0.10
2007,01,28,00,53,-0.10
2007,01,28,00,54,-0.10
2007,01,28,00,55,0.10
2007,01,28,00,56,0.10
2007,01,28,00,57,0.10
2007,01,28,00,58,0.10
2007,01,28,00,59,0.10
2007,01,28,01,00,0.10
2007,01,28,01,01,0.10
2007,01,28,01,02,0.10
2007,01,28,01,03,0.10
2007,01,28,01,04,0.10
2007,01,28,01,05,0.10
2007,01,28,01,06,0.10
2007,01,28,01,07,0.10
2007,01,28,01,08,0.10
2007,01,28,01,09,0.10
2007,01,28,01,10,0.10
2007,01,28,01,11,0.10
2007,01,28,01,12,0.10
2007,01,28,01,13,0.10
2007,01,28,01,14,0.10
2007,01,28,01,15,0.10
2007,01,28,01,16,0.20
2007,01,28,01,17,0.20
2007,01,28,01,18,0.20
2007,01,28,01,19,0.30
2007,01,28,01,20,0.30
2007,01,28,01,21,0.40
2007,01,28,01,22,0.40
2007,01,28,01,23,0.40
2007,01,28,01,24,0.40
2007,01,28,01,25,0.50
2007,01,28,01,26,0.50
2007,01,28,01,27,0.50
2007,01,28,01,28,0.50
2007,01,28,01,29,0.50
2007,01,28,01,30,0.50
2007,01,28,01,31,0.50
2007,01,28,01,32,0.40
2007,01,28,01,33,0.40
2007,01,28,01,34,0.40
2007,01,28,01,35,0.40
2007,01,28,01,36,0.40
2007,01,28,01,37,0.30
2007,01,28,01,38,0.30
2007,01,28,01,39,0.30
2007,01,28,01,40,0.30
2007,01,28,01,41,0.30
2007,01,28,01,42,0.30
2007,01,28,01,43,0.30
2007,01,28,01,44,0.30
2007,01,28,01,45,0.40
2007,01,28,01,46,0.40
2007,01,28,01,47,0.40
2007,01,28,01,48,0.50
2007,01,28,01,49,0.60
2007,01,28,01,50,0.70
2007,01,28,01,51,0.80
2007,01,28,01,52,0.80
2007,01,28,01,53,0.80
2007,01,28,01,54,0.80
2007,01,28,01,55,0.80
2007,01,28,01,56,0.80
2007,01,28,01,57,0.80
2007,01,28,01,58,0.70
2007,01,28,01,59,0.70
2007,01,28,02,00,0.60
2007,01,28,02,01,0.50
2007,01,28,02,02,0.50
2007,01,28,02,03,0.40
2007,01,28,02,04,0.40
2007,01,28,02,05,0.40
2007,01,28,02,06,0.30
2007,01,28,02,07,0.20
2007,01,28,02,08,0.20
2007,01,28,02,09,0.20
2007,01,28,02,10,0.10
2007,01,28,02,11,0.10
2007,01,28,02,12,0.10
2007,01,28,02,13,0.00
2007,01,28,02,14,-0.10
2007,01,28,02,15,-0.10
2007,01,28,02,16,-0.10
2007,01,28,02,17,-0.10
2007,01,28,02,18,-0.10
2007,01,28,02,19,-0.10
2007,01,28,02,20,-0.10
2007,01,28,02,21,-0.20
2007,01,28,02,22,-0.20
2007,01,28,02,23,-0.20
2007,01,28,02,24,-0.20
2007,01,28,02,25,-0.30
2007,01,28,02,26,-0.30
2007,01,28,02,27,-0.30
2007,01,28,02,28,-0.30
2007,01,28,02,29,-0.30
2007,01,28,02,30,-0.40
2007,01,28,02,31,-0.40
2007,01,28,02,32,-0.40
2007,01,28,02,33,-0.40
2007,01,28,02,34,-0.40
2007,01,28,02,35,-0.40
2007,01,28,02,36,-0.40
2007,01,28,02,37,-0.50
2007,01,28,02,38,-0.60
2007,01,28,02,39,-0.60
2007,01,28,02,40,-0.60
2007,01,28,02,41,-0.60
2007,01,28,02,42,-0.60
2007,01,28,02,43,-0.60
2007,01,28,02,44,-0.60
2007,01,28,02,45,-0.60
2007,01,28,02,46,-0.60
2007,01,28,02,47,-0.60
2007,01,28,02,48,-0.60
2007,01,28,02,49,-0.60
2007,01,28,02,50,-0.60
2007,01,28,02,51,-0.60
2007,01,28,02,52,-0.40
2007,01,28,02,53,-0.40
2007,01,28,02,54,-0.40
2007,01,28,02,55,-0.30
2007,01,28,02,56,-0.30
2007,01,28,02,57,-0.30
2007,01,28,02,58,-0.30
2007,01,28,02,59,-0.40
2007,01,28,03,00,-0.40
2007,01,28,03,01,-0.40
2007,01,28,03,02,-0.40
2007,01,28,03,03,-0.40
2007,01,28,03,04,-0.40
2007,01,28,03,05,-0.40
2007,01,28,03,06,-0.30
2007,01,28,03,07,-0.30
2007,01,28,03,08,-0.30
2007,01,28,03,09,-0.30
2007,01,28,03,10,-0.30
2007,01,28,03,11,-0.30
2007,01,28,03,12,-0.30
2007,01,28,03,13,-0.30
2007,01,28,03,14,-0.30
2007,01,28,03,15,-0.30
2007,01,28,03,16,-0.30
2007,01,28,03,17,-0.30
2007,01,28,03,18,-0.30
2007,01,28,03,19,-0.20
2007,01,28,03,20,-0.20
2007,01,28,03,21,-0.10
2007,01,28,03,22,-0.10
2007,01,28,03,23,-0.10
2007,01,28,03,24,-0.10
2007,01,28,03,25,-0.10
2007,01,28,03,26,-0.10
2007,01,28,03,27,0.00
2007,01,28,03,28,0.10
2007,01,28,03,29,0.10
2007,01,28,03,30,0.10
2007,01,28,03,31,0.10
2007,01,28,03,32,0.10
2007,01,28,03,33,0.10
2007,01,28,03,34,0.10
2007,01,28,03,35,0.10
2007,01,28,03,36,0.10
2007,01,28,03,37,0.10
2007,01,28,03,38,0.10
2007,01,28,03,39,0.10
2007,01,28,03,40,0.10
2007,01,28,03,41,0.10
2007,01,28,03,42,0.00
2007,01,28,03,43,-0.10
2007,01,28,03,44,-0.10
2007,01,28,03,45,-0.20
2007,01,28,03,46,-0.30
2007,01,28,03,47,-0.30
2007,01,28,03,48,-0.40
2007,01,28,03,49,-0.40
2007,01,28,03,50,-0.40
2007,01,28,03,51,-0.40
2007,01,28,03,52,-0.40
2007,01,28,03,53,-0.50
2007,01,28,03,54,-0.60
2007,01,28,03,55,-0.60
2007,01,28,03,56,-0.60
2007,01,28,03,57,-0.60
2007,01,28,03,58,-0.60
2007,01,28,03,59,-0.60
2007,01,28,04,00,-0.60
2007,01,28,04,01,-0.60
2007,01,28,04,02,-0.60
2007,01,28,04,03,-0.60
2007,01,28,04,04,-0.70
2007,01,28,04,05,-0.70
2007,01,28,04,06,-0.70
2007,01,28,04,07,-0.70
2007,01,28,04,08,-0.70
2007,01,28,04,09,-0.80
2007,01,28,04,10,-0.80
2007,01,28,04,11,-0.80
2007,01,28,04,12,-0.80
2007,01,28,04,13,-0.90
2007,01,28,04,14,-0.90
2007,01,28,04,15,-0.90
2007,01,28,04,16,-0.90
2007,01,28,04,17,-0.90
2007,01,28,04,18,-0.90
2007,01,28,04,19,-1.10
2007,01,28,04,20,-1.10
2007,01,28,04,21,-1.10
2007,01,28,04,22,-1.10
2007,01,28,04,23,-1.10
2007,01,28,04,24,-1.10
2007,01,28,04,25,-1.20
2007,01,28,04,26,-1.20
2007,01,28,04,27,-1.20
2007,01,28,04,28,-1.20
2007,01,28,04,29,-1.20
2007,01,28,04,30,-1.20
2007,01,28,04,31,-1.20
2007,01,28,04,32,-1.20
2007,01,28,04,33,-1.10
2007,01,28,04,34,-1.10
2007,01,28,04,35,-1.10
2007,01,28,04,36,-1.10
2007,01,28,04,37,-1.10
2007,01,28,04,38,-1.10
2007,01,28,04,39,-1.10
2007,01,28,04,40,-1.10
2007,01,28,04,41,-1.10
2007,01,28,04,42,-1.10
2007,01,28,04,43,-1.10
2007,01,28,04,44,-1.10
2007,01,28,04,45,-1.10
2007,01,28,04,46,-1.20
2007,01,28,04,47,-1.20
2007,01,28,04,48,-1.20
2007,01,28,04,49,-1.30
2007,01,28,04,50,-1.30
2007,01,28,04,51,-1.30
2007,01,28,04,52,-1.30
2007,01,28,04,53,-1.30
2007,01,28,04,54,-1.30
2007,01,28,04,55,-1.30
2007,01,28,04,56,-1.30
2007,01,28,04,57,-1.30
2007,01,28,04,58,-1.30
2007,01,28,04,59,-1.30
2007,01,28,05,00,-1.30
2007,01,28,05,01,-1.30
2007,01,28,05,02,-1.40
2007,01,28,05,03,-1.40
2007,01,28,05,04,-1.40
2007,01,28,05,05,-1.40
2007,01,28,05,06,-1.40
2007,01,28,05,07,-1.40
2007,01,28,05,08,-1.40
2007,01,28,05,09,-1.50
2007,01,28,05,10,-1.50
2007,01,28,05,11,-1.50
2007,01,28,05,12,-1.50
2007,01,28,05,13,-1.50
2007,01,28,05,14,-1.50
2007,01,28,05,15,-1.50
2007,01,28,05,16,-1.50
2007,01,28,05,17,-1.50
2007,01,28,05,18,-1.50
2007,01,28,05,19,-1.50
2007,01,28,05,20,-1.50
2007,01,28,05,21,-1.50
2007,01,28,05,22,-1.50
2007,01,28,05,23,-1.50
2007,01,28,05,24,-1.50
2007,01,28,05,25,-1.50
2007,01,28,05,26,-1.40
2007,01,28,05,27,-1.40
2007,01,28,05,28,-1.50
2007,01,28,05,29,-1.50
2007,01,28,05,30,-1.50
2007,01,28,05,31,-1.50
2007,01,28,05,32,-1.50
2007,01,28,05,33,-1.50
2007,01,28,05,34,-1.50
2007,01,28,05,35,-1.50
2007,01,28,05,36,-1.50
2007,01,28,05,37,-1.50
2007,01,28,05,38,-1.50
2007,01,28,05,39,-1.50
2007,01,28,05,40,-1.40
2007,01,28,05,41,-1.40
2007,01,28,05,42,-1.40
2007,01,28,05,43,-1.40
2007,01,28,05,44,-1.40
2007,01,28,05,45,-1.40
2007,01,28,05,46,-1.40
2007,01,28,05,47,-1.40
2007,01,28,05,48,-1.40
2007,01,28,05,49,-1.40
2007,01,28,05,50,-1.40
2007,01,28,05,51,-1.40
2007,01,28,05,52,-1.40
2007,01,28,05,53,-1.40
2007,01,28,05,54,-1.40
2007,01,28,05,55,-1.50
2007,01,28,05,56,-1.50
2007,01,28,05,57,-1.50
2007,01,28,05,58,-1.50
2007,01,28,05,59,-1.50
2007,01,28,06,00,-1.50
2007,01,28,06,01,-1.50
2007,01,28,06,02,-1.50
2007,01,28,06,03,-1.60
2007,01,28,06,04,-1.60
2007,01,28,06,05,-1.60
2007,01,28,06,06,-1.60
2007,01,28,06,07,-1.70
2007,01,28,06,08,-1.70
2007,01,28,06,09,-1.70
2007,01,28,06,10,-1.70
2007,01,28,06,11,-1.70
2007,01,28,06,12,-1.70
2007,01,28,06,13,-1.80
2007,01,28,06,14,-1.80
2007,01,28,06,15,-1.80
2007,01,28,06,16,-1.80
2007,01,28,06,17,-1.80
2007,01,28,06,18,-1.80
2007,01,28,06,19,-1.80
2007,01,28,06,20,-1.90
2007,01,28,06,21,-1.90
2007,01,28,06,22,-1.90
2007,01,28,06,23,-1.90
2007,01,28,06,24,-1.90
2007,01,28,06,25,-2.00
2007,01,28,06,26,-2.00
2007,01,28,06,27,-2.00
2007,01,28,06,28,-2.00
2007,01,28,06,29,-1.90
2007,01,28,06,30,-1.90
2007,01,28,06,31,-1.90
2007,01,28,06,32,-1.80
2007,01,28,06,33,-1.80
2007,01,28,06,34,-1.80
2007,01,28,06,35,-1.80
2007,01,28,06,36,-1.80
2007,01,28,06,37,-1.80
2007,01,28,06,38,-1.80
2007,01,28,06,39,-1.80
2007,01,28,06,40,-1.80
2007,01,28,06,41,-1.80
2007,01,28,06,42,-1.80
2007,01,28,06,43,-1.70
2007,01,28,06,44,-1.70
2007,01,28,06,45,-1.70
2007,01,28,06,46,-1.60
2007,01,28,06,47,-1.60
2007,01,28,06,48,-1.60
2007,01,28,06,49,-1.70
2007,01,28,06,50,-1.70
2007,01,28,06,51,-1.70
2007,01,28,06,52,-1.80
2007,01,28,06,53,-1.80
2007,01,28,06,54,-1.80
2007,01,28,06,55,-1.90
2007,01,28,06,56,-1.90
2007,01,28,06,57,-1.90
2007,01,28,06,58,-1.90
2007,01,28,06,59,-1.90
2007,01,28,07,00,-1.90
2007,01,28,07,01,-1.90
2007,01,28,07,02,-1.90
2007,01,28,07,03,-1.90
2007,01,28,07,04,-1.90
2007,01,28,07,05,-1.90
2007,01,28,07,06,-1.90
2007,01,28,07,07,-1.90
2007,01,28,07,08,-1.90
2007,01,28,07,09,-1.90
2007,01,28,07,10,-1.90
2007,01,28,07,11,-1.90
2007,01,28,07,12,-1.90
2007,01,28,07,13,-1.80
2007,01,28,07,14,-1.80
2007,01,28,07,15,-1.80
2007,01,28,07,16,-1.80
2007,01,28,07,17,-1.80
2007,01,28,07,18,-1.80
2007,01,28,07,19,-1.80
2007,01,28,07,20,-1.80
2007,01,28,07,21,-1.80
2007,01,28,07,22,-1.80
2007,01,28,07,23,-1.80
2007,01,28,07,24,-1.80
2007,01,28,07,25,-1.70
2007,01,28,07,26,-1.60
2007,01,28,07,27,-1.60
2007,01,28,07,28,-1.50
2007,01,28,07,29,-1.40
2007,01,28,07,30,-1.40
2007,01,28,07,31,-1.40
2007,01,28,07,32,-1.40
2007,01,28,07,33,-1.30
2007,01,28,07,34,-1.30
2007,01,28,07,35,-1.20
2007,01,28,07,36,-1.20
2007,01,28,07,37,-1.10
2007,01,28,07,38,-1.10
2007,01,28,07,39,-1.00
2007,01,28,07,40,-0.90
2007,01,28,07,41,-0.90
2007,01,28,07,42,-0.80
2007,01,28,07,43,-0.70
2007,01,28,07,44,-0.70
2007,01,28,07,45,-0.60
2007,01,28,07,46,-0.50
2007,01,28,07,47,-0.40
2007,01,28,07,48,-0.40
2007,01,28,07,49,-0.30
2007,01,28,07,50,-0.20
2007,01,28,07,51,-0.20
2007,01,28,07,52,-0.10
2007,01,28,07,53,-0.10
2007,01,28,07,54,0.00
2007,01,28,07,55,0.10
2007,01,28,07,56,0.10
2007,01,28,07,57,0.10
2007,01,28,07,58,0.10
2007,01,28,07,59,0.10
2007,01,28,08,00,0.10
2007,01,28,08,01,0.10
2007,01,28,08,02,0.10
2007,01,28,08,03,0.10
2007,01,28,08,04,0.10
2007,01,28,08,05,0.10
2007,01,28,08,06,0.10
2007,01,28,08,07,0.10
2007,01,28,08,08,0.10
2007,01,28,08,09,0.10
2007,01,28,08,10,0.10
2007,01,28,08,11,0.10
2007,01,28,08,12,0.10
2007,01,28,08,13,0.10
2007,01,28,08,14,-0.10
2007,01,28,08,15,-0.10
2007,01,28,08,16,-0.10
2007,01,28,08,17,-0.20
2007,01,28,08,18,-0.20
2007,01,28,08,19,-0.20
2007,01,28,08,20,-0.30
2007,01,28,08,21,-0.30
2007,01,28,08,22,-0.30
2007,01,28,08,23,-0.30
2007,01,28,08,24,-0.30
2007,01,28,08,25,-0.40
2007,01,28,08,26,-0.40
2007,01,28,08,27,-0.40
2007,01,28,08,28,-0.40
2007,01,28,08,29,-0.40
2007,01,28,08,30,-0.50
2007,01,28,08,31,-0.60
2007,01,28,08,32,-0.60
2007,01,28,08,33,-0.60
2007,01,28,08,34,-0.60
2007,01,28,08,35,-0.60
2007,01,28,08,36,-0.60
2007,01,28,08,37,-0.70
2007,01,28,08,38,-0.70
2007,01,28,08,39,-0.70
2007,01,28,08,40,-0.80
2007,01,28,08,41,-0.80
2007,01,28,08,42,-0.70
2007,01,28,08,43,-0.70
2007,01,28,08,44,-0.70
2007,01,28,08,45,-0.70
2007,01,28,08,46,-0.70
2007,01,28,08,47,-0.70
2007,01,28,08,48,-0.70
2007,01,28,08,49,-0.70
2007,01,28,08,50,-0.70
2007,01,28,08,51,-0.70
2007,01,28,08,52,-0.70
2007,01,28,08,53,-0.70
2007,01,28,08,54,-0.70
2007,01,28,08,55,-0.70
2007,01,28,08,56,-0.70
2007,01,28,08,57,-0.70
2007,01,28,08,58,-0.70
2007,01,28,08,59,-0.70
2007,01,28,09,00,-0.60
2007,01,28,09,01,-0.60
2007,01,28,09,02,-0.60
2007,01,28,09,03,-0.60
2007,01,28,09,04,-0.60
2007,01,28,09,05,-0.60
2007,01,28,09,06,-0.60
2007,01,28,09,07,-0.60
2007,01,28,09,08,-0.40
2007,01,28,09,09,-0.40
2007,01,28,09,10,-0.40
2007,01,28,09,11,-0.30
2007,01,28,09,12,-0.30
2007,01,28,09,13,-0.20
2007,01,28,09,14,-0.20
2007,01,28,09,15,-0.10
2007,01,28,09,16,-0.10
2007,01,28,09,17,0.00
2007,01,28,09,18,0.10
2007,01,28,09,19,0.10
2007,01,28,09,20,0.20
2007,01,28,09,21,0.30
2007,01,28,09,22,0.40
2007,01,28,09,23,0.50
2007,01,28,09,24,0.60
2007,01,28,09,25,0.70
2007,01,28,09,26,0.80
2007,01,28,09,27,0.90
2007,01,28,09,28,1.00
2007,01,28,09,29,1.10
2007,01,28,09,30,1.20
2007,01,28,09,31,1.30
2007,01,28,09,32,1.30
2007,01,28,09,33,1.40
2007,01,28,09,34,1.50
2007,01,28,09,35,1.60
2007,01,28,09,36,1.60
2007,01,28,09,37,1.70
2007,01,28,09,38,1.70
2007,01,28,09,39,1.80
2007,01,28,09,40,1.80
2007,01,28,09,41,1.90
2007,01,28,09,42,2.00
2007,01,28,09,43,2.00
2007,01,28,09,44,2.10
2007,01,28,09,45,2.10
2007,01,28,09,46,2.20
2007,01,28,09,47,2.20
2007,01,28,09,48,2.30
2007,01,28,09,49,2.30
2007,01,28,09,50,2.30
2007,01,28,09,51,2.40
2007,01,28,09,52,2.40
2007,01,28,09,53,2.40
2007,01,28,09,54,2.40
2007,01,28,09,55,2.40
2007,01,28,09,56,2.40
2007,01,28,09,57,2.40
2007,01,28,09,58,2.40
2007,01,28,09,59,2.40
2007,01,28,10,00,2.50
2007,01,28,10,01,2.50
2007,01,28,10,02,2.50
2007,01,28,10,03,2.50
2007,01,28,10,04,2.50
2007,01,28,10,05,2.60
2007,01,28,10,06,2.60
2007,01,28,10,07,2.60
2007,01,28,10,08,2.60
2007,01,28,10,09,2.70
2007,01,28,10,10,2.70
2007,01,28,10,11,2.70
2007,01,28,10,12,2.80
2007,01,28,10,13,2.80
2007,01,28,10,14,2.90
2007,01,28,10,15,3.10
2007,01,28,10,16,3.20
2007,01,28,10,17,3.30
2007,01,28,10,18,3.40
2007,01,28,10,19,3.50
2007,01,28,10,20,3.60
2007,01,28,10,21,3.70
2007,01,28,10,22,3.80
2007,01,28,10,23,3.90
2007,01,28,10,24,4.00
2007,01,28,10,25,4.10
2007,01,28,10,26,4.20
2007,01,28,10,27,4.30
2007,01,28,10,28,4.40
2007,01,28,10,29,4.50
2007,01,28,10,30,4.60
2007,01,28,10,31,4.70
2007,01,28,10,32,4.80
2007,01,28,10,33,4.90
2007,01,28,10,34,4.90
2007,01,28,10,35,5.00
2007,01,28,10,36,5.10
2007,01,28,10,37,5.20
2007,01,28,10,38,5.30
2007,01,28,10,39,5.30
2007,01,28,10,40,5.30
2007,01,28,10,41,5.40
2007,01,28,10,42,5.40
2007,01,28,10,43,5.50
2007,01,28,10,44,5.60
2007,01,28,10,45,5.60
2007,01,28,10,46,5.70
2007,01,28,10,47,5.70
2007,01,28,10,48,5.80
2007,01,28,10,49,5.90
2007,01,28,10,50,6.00
2007,01,28,10,51,6.00
2007,01,28,10,52,6.10
2007,01,28,10,53,6.10
2007,01,28,10,54,6.10
2007,01,28,10,55,6.10
2007,01,28,10,56,6.10
2007,01,28,10,57,6.20
2007,01,28,10,58,6.20
2007,01,28,10,59,6.20
2007,01,28,11,00,6.20
2007,01,28,11,01,6.30
2007,01,28,11,02,6.30
2007,01,28,11,03,6.30
2007,01,28,11,04,6.30
2007,01,28,11,05,6.30
2007,01,28,11,06,6.30
2007,01,28,11,07,6.30
2007,01,28,11,08,6.30
2007,01,28,11,09,6.30
2007,01,28,11,10,6.30
2007,01,28,11,11,6.20
2007,01,28,11,12,6.20
2007,01,28,11,13,6.20
2007,01,28,11,14,6.10
2007,01,28,11,15,6.10
2007,01,28,11,16,6.00
2007,01,28,11,17,6.00
2007,01,28,11,18,6.00
2007,01,28,11,19,5.90
2007,01,28,11,20,5.90
2007,01,28,11,21,5.80
2007,01,28,11,22,5.80
2007,01,28,11,23,5.80
2007,01,28,11,24,5.80
2007,01,28,11,25,5.80
2007,01,28,11,26,5.70
2007,01,28,11,27,5.70
2007,01,28,11,28,5.70
2007,01,28,11,29,5.80
2007,01,28,11,30,5.80
2007,01,28,11,31,5.80
2007,01,28,11,32,5.90
2007,01,28,11,33,5.90
2007,01,28,11,34,5.90
2007,01,28,11,35,5.90
2007,01,28,11,36,5.90
2007,01,28,11,37,5.90
2007,01,28,11,38,5.90
2007,01,28,11,39,5.90
2007,01,28,11,40,5.90
2007,01,28,11,41,5.90
2007,01,28,11,42,5.90
2007,01,28,11,43,5.90
2007,01,28,11,44,5.80
2007,01,28,11,45,5.80
2007,01,28,11,46,5.80
2007,01,28,11,47,5.80
2007,01,28,11,48,5.90
2007,01,28,11,49,5.90
2007,01,28,11,50,5.90
2007,01,28,11,51,6.00
2007,01,28,11,52,6.00
2007,01,28,11,53,6.00
2007,01,28,11,54,6.00
2007,01,28,11,55,6.00
2007,01,28,11,56,6.00
2007,01,28,11,57,6.00
2007,01,28,11,58,6.00
2007,01,28,11,59,5.90
2007,01,28,12,00,5.90
2007,01,28,12,01,5.90
2007,01,28,12,02,6.00
2007,01,28,12,03,6.00
2007,01,28,12,04,6.00
2007,01,28,12,05,5.90
2007,01,28,12,06,5.80
2007,01,28,12,07,5.80
2007,01,28,12,08,5.80
2007,01,28,12,09,5.90
2007,01,28,12,10,5.90
2007,01,28,12,11,6.00
2007,01,28,12,12,6.00
2007,01,28,12,13,6.10
2007,01,28,12,14,6.10
2007,01,28,12,15,6.10
2007,01,28,12,16,6.20
2007,01,28,12,17,6.20
2007,01,28,12,18,6.30
2007,01,28,12,19,6.30
2007,01,28,12,20,6.40
2007,01,28,12,21,6.40
2007,01,28,12,22,6.50
2007,01,28,12,23,6.60
2007,01,28,12,24,6.60
2007,01,28,12,25,6.60
2007,01,28,12,26,6.60
2007,01,28,12,27,6.70
2007,01,28,12,28,6.70
2007,01,28,12,29,6.70
2007,01,28,12,30,6.70
2007,01,28,12,31,6.70
2007,01,28,12,32,6.70
2007,01,28,12,33,6.70
2007,01,28,12,34,6.70
2007,01,28,12,35,6.70
2007,01,28,12,36,6.70
2007,01,28,12,37,6.70
2007,01,28,12,38,6.70
2007,01,28,12,39,6.60
2007,01,28,12,40,6.60
2007,01,28,12,41,6.60
2007,01,28,12,42,6.60
2007,01,28,12,43,6.60
2007,01,28,12,44,6.60
2007,01,28,12,45,6.60
2007,01,28,12,46,6.60
2007,01,28,12,47,6.60
2007,01,28,12,48,6.60
2007,01,28,12,49,6.60
2007,01,28,12,50,6.60
2007,01,28,12,51,6.60
2007,01,28,12,52,6.70
2007,01,28,12,53,6.80
2007,01,28,12,54,6.80
2007,01,28,12,55,6.80
2007,01,28,12,56,6.80
2007,01,28,12,57,6.90
2007,01,28,12,58,6.90
2007,01,28,12,59,6.90
2007,01,28,13,00,7.00
2007,01,28,13,01,7.00
2007,01,28,13,02,7.10
2007,01,28,13,03,7.10
2007,01,28,13,04,7.20
2007,01,28,13,05,7.20
2007,01,28,13,06,7.20
2007,01,28,13,07,7.20
2007,01,28,13,08,7.20
2007,01,28,13,09,7.30
2007,01,28,13,10,7.30
2007,01,28,13,11,7.30
2007,01,28,13,12,7.30
2007,01,28,13,13,7.30
2007,01,28,13,14,7.40
2007,01,28,13,15,7.40
2007,01,28,13,16,7.40
2007,01,28,13,17,7.40
2007,01,28,13,18,7.50
2007,01,28,13,19,7.50
2007,01,28,13,20,7.50
2007,01,28,13,21,7.50
2007,01,28,13,22,7.50
2007,01,28,13,23,7.50
2007,01,28,13,24,7.50
2007,01,28,13,25,7.50
2007,01,28,13,26,7.50
2007,01,28,13,27,7.60
2007,01,28,13,28,7.60
2007,01,28,13,29,7.70
2007,01,28,13,30,7.80
2007,01,28,13,31,7.90
2007,01,28,13,32,8.00
2007,01,28,13,33,8.00
2007,01,28,13,34,8.10
2007,01,28,13,35,8.20
2007,01,28,13,36,8.20
2007,01,28,13,37,8.20
2007,01,28,13,38,8.30
2007,01,28,13,39,8.30
2007,01,28,13,40,8.30
2007,01,28,13,41,8.20
2007,01,28,13,42,8.20
2007,01,28,13,43,8.20
2007,01,28,13,44,8.20
2007,01,28,13,45,8.20
2007,01,28,13,46,8.20
2007,01,28,13,47,8.20
2007,01,28,13,48,8.20
2007,01,28,13,49,8.20
2007,01,28,13,50,8.20
2007,01,28,13,51,8.20
2007,01,28,13,52,8.20
2007,01,28,13,53,8.20
2007,01,28,13,54,8.20
2007,01,28,13,55,8.20
2007,01,28,13,56,8.20
2007,01,28,13,57,8.20
2007,01,28,13,58,8.20
2007,01,28,13,59,8.20
2007,01,28,14,00,8.20
2007,01,28,14,01,8.20
2007,01,28,14,02,8.20
2007,01,28,14,03,8.30
2007,01,28,14,04,8.40
2007,01,28,14,05,8.40
2007,01,28,14,06,8.40
2007,01,28,14,07,8.50
2007,01,28,14,08,8.50
2007,01,28,14,09,8.40
2007,01,28,14,10,8.40
2007,01,28,14,11,8.40
2007,01,28,14,12,8.30
2007,01,28,14,13,8.30
2007,01,28,14,14,8.20
2007,01,28,14,15,8.20
2007,01,28,14,16,8.20
2007,01,28,14,17,8.20
2007,01,28,14,18,8.20
2007,01,28,14,19,8.20
2007,01,28,14,20,8.20
2007,01,28,14,21,8.30
2007,01,28,14,22,8.20
2007,01,28,14,23,8.20
2007,01,28,14,24,8.20
2007,01,28,14,25,8.20
2007,01,28,14,26,8.20
2007,01,28,14,27,8.30
2007,01,28,14,28,8.30
2007,01,28,14,29,8.30
2007,01,28,14,30,8.30
2007,01,28,14,31,8.40
2007,01,28,14,32,8.40
2007,01,28,14,33,8.40
2007,01,28,14,34,8.40
2007,01,28,14,35,8.40
2007,01,28,14,36,8.40
2007,01,28,14,37,8.40
2007,01,28,14,38,8.50
2007,01,28,14,39,8.50
2007,01,28,14,40,8.50
2007,01,28,14,41,8.50
2007,01,28,14,42,8.50
2007,01,28,14,43,8.50
2007,01,28,14,44,8.50
2007,01,28,14,45,8.50
2007,01,28,14,46,8.50
2007,01,28,14,47,8.40
2007,01,28,14,48,8.40
2007,01,28,14,49,8.40
2007,01,28,14,50,8.40
2007,01,28,14,51,8.50
2007,01,28,14,52,8.50
2007,01,28,14,53,8.60
2007,01,28,14,54,8.60
2007,01,28,14,55,8.70
2007,01,28,14,56,8.70
2007,01,28,14,57,8.70
2007,01,28,14,58,8.70
2007,01,28,14,59,8.70
2007,01,28,15,00,8.70
2007,01,28,15,01,8.70
2007,01,28,15,02,8.70
2007,01,28,15,03,8.70
2007,01,28,15,04,8.70
2007,01,28,15,05,8.70
2007,01,28,15,06,8.80
2007,01,28,15,07,8.80
2007,01,28,15,08,8.80
2007,01,28,15,09,8.80
2007,01,28,15,10,8.80
2007,01,28,15,11,8.70
2007,01,28,15,12,8.70
2007,01,28,15,13,8.70
2007,01,28,15,14,8.70
2007,01,28,15,15,8.70
2007,01,28,15,16,8.60
2007,01,28,15,17,8.50
2007,01,28,15,18,8.50
2007,01,28,15,19,8.40
2007,01,28,15,20,8.30
2007,01,28,15,21,8.20
2007,01,28,15,22,8.20
2007,01,28,15,23,8.10
2007,01,28,15,24,8.00
2007,01,28,15,25,8.00
2007,01,28,15,26,7.90
2007,01,28,15,27,7.90
2007,01,28,15,28,7.90
2007,01,28,15,29,7.80
2007,01,28,15,30,7.80
2007,01,28,15,31,7.80
2007,01,28,15,32,7.80
2007,01,28,15,33,7.80
2007,01,28,15,34,7.80
2007,01,28,15,35,7.80
2007,01,28,15,36,7.80
2007,01,28,15,37,7.70
2007,01,28,15,38,7.70
2007,01,28,15,39,7.70
2007,01,28,15,40,7.70
2007,01,28,15,41,7.70
2007,01,28,15,42,7.70
2007,01,28,15,43,7.70
2007,01,28,15,44,7.70
2007,01,28,15,45,7.80
2007,01,28,15,46,7.80
2007,01,28,15,47,7.90
2007,01,28,15,48,7.90
2007,01,28,15,49,8.00
2007,01,28,15,50,8.00
2007,01,28,15,51,7.90
2007,01,28,15,52,7.90
2007,01,28,15,53,7.90
2007,01,28,15,54,7.90
2007,01,28,15,55,7.80
2007,01,28,15,56,7.80
2007,01,28,15,57,7.80
2007,01,28,15,58,7.80
2007,01,28,15,59,7.80
2007,01,28,16,00,7.80
2007,01,28,16,01,7.80
2007,01,28,16,02,7.80
2007,01,28,16,03,7.80
2007,01,28,16,04,7.80
2007,01,28,16,05,7.80
2007,01,28,16,06,7.80
2007,01,28,16,07,7.80
2007,01,28,16,08,7.80
2007,01,28,16,09,7.80
2007,01,28,16,10,7.80
2007,01,28,16,11,7.80
2007,01,28,16,12,7.70
2007,01,28,16,13,7.70
2007,01,28,16,14,7.70
2007,01,28,16,15,7.60
2007,01,28,16,16,7.60
2007,01,28,16,17,7.60
2007,01,28,16,18,7.60
2007,01,28,16,19,7.50
2007,01,28,16,20,7.50
2007,01,28,16,21,7.50
2007,01,28,16,22,7.50
2007,01,28,16,23,7.40
2007,01,28,16,24,7.40
2007,01,28,16,25,7.40
2007,01,28,16,26,7.30
2007,01,28,16,27,7.30
2007,01,28,16,28,7.30
2007,01,28,16,29,7.20
2007,01,28,16,30,7.10
2007,01,28,16,31,7.10
2007,01,28,16,32,7.00
2007,01,28,16,33,7.00
2007,01,28,16,34,6.90
2007,01,28,16,35,6.90
2007,01,28,16,36,6.80
2007,01,28,16,37,6.80
2007,01,28,16,38,6.80
2007,01,28,16,39,6.80
2007,01,28,16,40,6.70
2007,01,28,16,41,6.70
2007,01,28,16,42,6.70
2007,01,28,16,43,6.60
2007,01,28,16,44,6.60
2007,01,28,16,45,6.60
2007,01,28,16,46,6.60
2007,01,28,16,47,6.60
2007,01,28,16,48,6.50
2007,01,28,16,49,6.40
2007,01,28,16,50,6.40
2007,01,28,16,51,6.40
2007,01,28,16,52,6.40
2007,01,28,16,53,6.30
2007,01,28,16,54,6.30
2007,01,28,16,55,6.30
2007,01,28,16,56,6.20
2007,01,28,16,57,6.20
2007,01,28,16,58,6.20
2007,01,28,16,59,6.10
2007,01,28,17,00,6.10
2007,01,28,17,01,6.00
2007,01,28,17,02,6.00
2007,01,28,17,03,6.00
2007,01,28,17,04,5.90
2007,01,28,17,05,5.90
2007,01,28,17,06,5.90
2007,01,28,17,07,5.90
2007,01,28,17,08,5.80
2007,01,28,17,09,5.80
2007,01,28,17,10,5.80
2007,01,28,17,11,5.70
2007,01,28,17,12,5.70
2007,01,28,17,13,5.70
2007,01,28,17,14,5.70
2007,01,28,17,15,5.70
2007,01,28,17,16,5.70
2007,01,28,17,17,5.60
2007,01,28,17,18,5.60
2007,01,28,17,19,5.60
2007,01,28,17,20,5.60
2007,01,28,17,21,5.50
2007,01,28,17,22,5.50
2007,01,28,17,23,5.50
2007,01,28,17,24,5.40
2007,01,28,17,25,5.40
2007,01,28,17,26,5.30
2007,01,28,17,27,5.30
2007,01,28,17,28,5.30
2007,01,28,17,29,5.20
2007,01,28,17,30,5.20
2007,01,28,17,31,5.10
2007,01,28,17,32,5.10
2007,01,28,17,33,5.10
2007,01,28,17,34,5.00
2007,01,28,17,35,4.90
2007,01,28,17,36,4.90
2007,01,28,17,37,4.90
2007,01,28,17,38,4.80
2007,01,28,17,39,4.70
2007,01,28,17,40,4.70
2007,01,28,17,41,4.60
2007,01,28,17,42,4.50
2007,01,28,17,43,4.50
2007,01,28,17,44,4.40
2007,01,28,17,45,4.30
2007,01,28,17,46,4.30
2007,01,28,17,47,4.20
2007,01,28,17,48,4.20